St. Joseph, KS

3:49 PM CDT on August 22, 2019 (GMT -0500)
Rosecrans Memorial

Weather History for KSTJ - July, 2019

Change the Weather History Date:

Monday, July 22, 2019

  Actual Average Record
Temperature  
Mean Temperature 71 °F 77 °F  
Max Temperature 81 °F 87 °F 103 °F (1934)
Min Temperature 61 °F 67 °F 53 °F (1970)
Degree Days  
Heating Degree Days 0 0  
Month to date heating degree days 0 0  
Since 1 June heating degree days 1 8  
Since 1 July heating degree days 0 0  
Cooling Degree Days 6 12  
Month to date cooling degree days 343 262  
Year to date cooling degree days 737 642  
Since 1 June cooling degree days 636 529  
Growing Degree Days 22 (Base 50)    
Moisture  
Dew Point 61 °F    
Average Humidity 70    
Maximum Humidity 97    
Minimum Humidity 42    
Precipitation  
Precipitation 0.00 in 0.18 in 1.05 in (1961)
Month to date precipitation 0.77 3.58  
Year to date precipitation 22.04 20.71  
Sea Level Pressure  
Sea Level Pressure 30.14 in    
Wind  
Wind Speed 10 mph (North)    
Max Wind Speed 21 mph    
Max Gust Speed 27 mph    
Visibility 10 miles    
Events      
T = Trace of Precipitation, MM = Missing Value Source: NWS Daily Summary

Daily Weather History Graph

Daily Weather History Graph

Search for Another Location

Airport or City:

Astronomy

Jul. 22, 2019 Rise Set
Actual Time 6:09 AM CDT 8:42 PM CDT
Civil Twilight 5:38 AM CDT 9:13 PM CDT
Nautical Twilight 4:59 AM CDT 9:51 PM CDT
Astronomical Twilight 4:16 AM CDT 10:34 PM CDT
Moon No Moon Rise 11:26 AM CDT
Length of Visible Light 15h 34m
Length of Day
14h 32m
Waning Gibbous, 72% of the Moon is Illuminated
Jul 22
Waning Gibbous
Jul 24
Last Quarter
Jul 31
New
Aug 7
First Quarter
Aug 15
Full

Hourly Weather History & Observations

Time (CDT) Temp. Heat Index Dew Point Humidity Pressure Visibility Wind Dir Wind Speed Gust Speed Precip Events Conditions
12:53 AM 70.0 °F - 68.0 °F 93% 30.06 in 10.0 mi North 8.1 mph - N/A   Mostly Cloudy
1:53 AM 69.1 °F - 66.9 °F 93% 30.05 in 10.0 mi North 5.8 mph - N/A   Clear
2:53 AM 68.0 °F - 64.9 °F 90% 30.06 in 10.0 mi North 6.9 mph - N/A   Clear
3:53 AM 68.0 °F - 64.9 °F 90% 30.07 in 10.0 mi North 9.2 mph - N/A   Clear
4:53 AM 66.9 °F - 64.0 °F 90% 30.09 in 10.0 mi North 6.9 mph - N/A   Partly Cloudy
5:53 AM 66.0 °F - 63.0 °F 90% 30.11 in 10.0 mi North 9.2 mph - N/A   Scattered Clouds
6:53 AM 66.9 °F - 64.0 °F 90% 30.12 in 10.0 mi North 8.1 mph - N/A   Clear
7:53 AM 70.0 °F - 64.0 °F 81% 30.13 in 10.0 mi North 8.1 mph - N/A   Partly Cloudy
8:53 AM 73.0 °F - 64.9 °F 76% 30.14 in 10.0 mi North 11.5 mph - N/A   Clear
9:53 AM 75.0 °F - 63.0 °F 66% 30.16 in 10.0 mi North 13.8 mph - N/A   Clear
10:53 AM 77.0 °F - 62.1 °F 60% 30.16 in 10.0 mi North 15.0 mph - N/A   Clear
11:53 AM 80.1 °F 81.1 °F 61.0 °F 52% 30.16 in 10.0 mi North 13.8 mph 23.0 mph N/A   Partly Cloudy
12:53 PM 80.1 °F 81.2 °F 62.1 °F 54% 30.17 in 10.0 mi North 12.7 mph 23.0 mph N/A   Partly Cloudy
1:53 PM 79.0 °F - 57.9 °F 48% 30.16 in 10.0 mi North 11.5 mph 23.0 mph N/A   Mostly Cloudy
2:53 PM 80.1 °F 80.7 °F 59.0 °F 48% 30.16 in 10.0 mi NNE 16.1 mph 27.6 mph N/A   Scattered Clouds
3:53 PM 80.1 °F 80.4 °F 57.0 °F 45% 30.16 in 10.0 mi NNE 13.8 mph 24.2 mph N/A   Partly Cloudy
4:53 PM 81.0 °F 81.0 °F 57.0 °F 44% 30.16 in 10.0 mi NNE 17.3 mph 25.3 mph N/A   Partly Cloudy
5:53 PM 80.1 °F 80.2 °F 55.9 °F 43% 30.15 in 10.0 mi NNE 15.0 mph 26.5 mph N/A   Clear
6:53 PM 79.0 °F - 55.9 °F 45% 30.15 in 10.0 mi NNE 16.1 mph - N/A   Clear
7:53 PM 75.9 °F - 57.9 °F 54% 30.16 in 10.0 mi North 8.1 mph - N/A   Clear
8:13 PM 73.9 °F - 59.0 °F 59% 30.18 in 10.0 mi North 5.8 mph - N/A   Partly Cloudy
8:38 PM 70.0 °F - 60.1 °F 71% 30.18 in 9.0 mi North 5.8 mph - N/A   Mostly Cloudy
8:53 PM 69.1 °F - 61.0 °F 75% 30.17 in 10.0 mi North 5.8 mph - N/A   Mostly Cloudy
9:04 PM 68.0 °F - 60.1 °F 76% 30.18 in 10.0 mi North 5.8 mph - N/A   Partly Cloudy
9:53 PM 66.0 °F - 60.1 °F 81% 30.18 in 10.0 mi North 6.9 mph - N/A   Clear
10:53 PM 64.0 °F - 59.0 °F 84% 30.20 in 10.0 mi North 6.9 mph - N/A   Clear
11:53 PM 63.0 °F - 57.9 °F 84% 30.22 in 10.0 mi North 5.8 mph - N/A   Clear